Location: Igon
(43.1667°N, 0.2333°W)
Time: 14:12:41
(UTC+00:00)

Genesis I - Pass Details

Date: 29 November 2020
Orbit: 493 x 528 km, 64.5° (Epoch: 24 January)

Event Time Altitude Azimuth Distance (km) Brightness Sun altitude
Exits shadow 05:25:20 29° 220° (SW) 943 4.2 -18.8°
Maximum altitude 05:27:11 80° 304° (WNW) 512 3.0 -18.5°
Drops below altitude 10° 05:31:02 10° 32° (NNE) 1,721 6.1 -17.8°
Sets 05:33:14 0° 34° (NE) 2,616 7.1 -17.4°
